When you browse on this site, cookies collect data to enhance your experience and personalize the content and advertising you see.
Visit our Privacy Policy to learn more. By continuing to use the site, you agree to this use of cookies and data.
  • In Spain
  • List of Countries
  • For 7 days
  • Water Temperature
  • Satellite Maps
  • Weather Map
  • Weather Widgets
  • user-avatar
    Login

    Hourly Weather Kruhle Ozero

    Today, 24 May, Friday

    Time Temperature Precipitation Wind Pressure Humidity
    00:00 +15°C° 0 mm 1 mps 745 mmHg 87%
    01:00 +15°C° 0 mm 1 mps 745 mmHg 88%
    02:00 +15°C° 0 mm 1 mps 745 mmHg 90%
    03:00 +15°C° 0 mm 2 mps 745 mmHg 90%
    04:00 +15°C° 0 mm 2 mps 745 mmHg 90%
    05:00 +16°C° 0 mm 2 mps 746 mmHg 90%
    06:00 +18°C° 0 mm 2 mps 746 mmHg 84%
    07:00 +20°C° 0 mm 2 mps 746 mmHg 78%
    08:00 +23°C° 0 mm 2 mps 746 mmHg 72%
    09:00 +24°C° 0.1 mm 2 mps 746 mmHg 67%
    10:00 +25°C° 0.1 mm 2 mps 746 mmHg 62%
    11:00 +26°C° 0.1 mm 2 mps 746 mmHg 57%
    12:00 +26°C° 0 mm 2 mps 746 mmHg 55%
    13:00 +27°C° 0 mm 2 mps 746 mmHg 53%
    14:00 +27°C° 0 mm 2 mps 745 mmHg 50%
    15:00 +27°C° 0 mm 1 mps 745 mmHg 51%
    16:00 +27°C° 0 mm 1 mps 745 mmHg 53%
    17:00 +25°C° 0 mm 0 mps 745 mmHg 54%
    18:00 +22°C° 0.7 mm 0 mps 745 mmHg 61%
    19:00 +20°C° 0.7 mm 0 mps 745 mmHg 68%
    20:00 +18°C° 0.7 mm 0 mps 745 mmHg 75%
    21:00 +20°C° 0.9 mm 1 mps 745 mmHg 79%
    22:00 +18°C° 0.9 mm 2 mps 745 mmHg 83%
    23:00 +18°C° 0.9 mm 3 mps 745 mmHg 87%

    Tomorrow, 25 May, Saturday

    Time Temperature Precipitation Wind Pressure Humidity
    00:00 +18°C° 0.1 mm 2 mps 745 mmHg 86%
    01:00 +18°C° 0.1 mm 2 mps 745 mmHg 85%
    02:00 +19°C° 0.1 mm 1 mps 745 mmHg 84%
    03:00 +18°C° 0.3 mm 1 mps 744 mmHg 84%
    04:00 +18°C° 0.3 mm 1 mps 744 mmHg 84%
    05:00 +17°C° 0.3 mm 2 mps 744 mmHg 84%
    06:00 +18°C° 0.1 mm 2 mps 744 mmHg 83%
    07:00 +19°C° 0.1 mm 2 mps 744 mmHg 82%
    08:00 +20°C° 0.1 mm 3 mps 744 mmHg 81%
    09:00 +21°C° 0.6 mm 3 mps 744 mmHg 75%
    10:00 +22°C° 0.6 mm 3 mps 744 mmHg 70%
    11:00 +24°C° 0.6 mm 2 mps 744 mmHg 64%
    12:00 +24°C° 0.6 mm 2 mps 744 mmHg 62%
    13:00 +25°C° 0.6 mm 2 mps 743 mmHg 60%
    14:00 +25°C° 0.6 mm 2 mps 743 mmHg 58%
    15:00 +25°C° 0.6 mm 2 mps 743 mmHg 61%
    16:00 +24°C° 0.6 mm 2 mps 743 mmHg 63%
    17:00 +24°C° 0.6 mm 2 mps 742 mmHg 66%
    18:00 +23°C° 0.6 mm 2 mps 742 mmHg 71%
    19:00 +20°C° 0.6 mm 2 mps 743 mmHg 77%
    20:00 +18°C° 0.6 mm 2 mps 743 mmHg 82%
    21:00 +18°C° 0 mm 2 mps 743 mmHg 83%
    22:00 +19°C° 0 mm 1 mps 742 mmHg 83%
    23:00 +19°C° 0 mm 1 mps 742 mmHg 84%

    Day after tomorrow, 26 May, Sunday

    Time Temperature Precipitation Wind Pressure Humidity
    00:00 +18°C° 0.2 mm 1 mps 742 mmHg 86%
    01:00 +18°C° 0.2 mm 1 mps 743 mmHg 88%
    02:00 +16°C° 0.2 mm 2 mps 743 mmHg 90%
    03:00 +16°C° 0 mm 2 mps 743 mmHg 91%
    04:00 +16°C° 0 mm 2 mps 743 mmHg 92%
    05:00 +16°C° 0 mm 3 mps 743 mmHg 93%
    06:00 +17°C° 0 mm 3 mps 743 mmHg 89%
    07:00 +19°C° 0 mm 4 mps 744 mmHg 85%
    08:00 +20°C° 0 mm 5 mps 744 mmHg 81%
    09:00 +21°C° 0.1 mm 5 mps 744 mmHg 77%
    10:00 +22°C° 0.1 mm 5 mps 744 mmHg 72%
    11:00 +23°C° 0.1 mm 6 mps 744 mmHg 67%
    12:00 +23°C° 0 mm 6 mps 745 mmHg 64%
    13:00 +25°C° 0 mm 5 mps 745 mmHg 61%
    14:00 +25°C° 0 mm 5 mps 745 mmHg 58%
    15:00 +23°C° 0.1 mm 5 mps 745 mmHg 61%
    16:00 +23°C° 0.1 mm 5 mps 746 mmHg 65%
    17:00 +22°C° 0.1 mm 4 mps 746 mmHg 69%
    18:00 +21°C° 0.1 mm 4 mps 746 mmHg 74%
    19:00 +19°C° 0.1 mm 3 mps 746 mmHg 80%
    20:00 +17°C° 0.1 mm 2 mps 747 mmHg 86%
    21:00 +17°C° 0 mm 2 mps 747 mmHg 87%
    22:00 +16°C° 0 mm 2 mps 747 mmHg 89%
    23:00 +15°C° 0 mm 2 mps 748 mmHg 90%

    27 May, Monday

    Time Temperature Precipitation Wind Pressure Humidity
    00:00 +15°C° 0 mm 2 mps 748 mmHg 91%
    01:00 +15°C° 0 mm 2 mps 748 mmHg 91%
    02:00 +14°C° 0 mm 2 mps 749 mmHg 92%
    03:00 +14°C° 0 mm 2 mps 749 mmHg 91%
    04:00 +14°C° 0 mm 2 mps 749 mmHg 90%
    05:00 +14°C° 0 mm 2 mps 750 mmHg 90%
    06:00 +16°C° 0 mm 2 mps 750 mmHg 83%
    07:00 +18°C° 0 mm 2 mps 750 mmHg 76%
    08:00 +20°C° 0 mm 2 mps 750 mmHg 69%
    09:00 +21°C° 0 mm 3 mps 750 mmHg 66%
    10:00 +24°C° 0 mm 3 mps 751 mmHg 62%
    11:00 +25°C° 0 mm 4 mps 751 mmHg 58%
    12:00 +25°C° 0.4 mm 4 mps 751 mmHg 60%
    13:00 +25°C° 0.4 mm 5 mps 751 mmHg 63%
    14:00 +25°C° 0.4 mm 5 mps 751 mmHg 65%
    15:00 +25°C° 0.4 mm 4 mps 751 mmHg 67%
    16:00 +25°C° 0.4 mm 4 mps 751 mmHg 68%
    17:00 +25°C° 0.4 mm 3 mps 751 mmHg 70%
    18:00 +24°C° 0.1 mm 3 mps 751 mmHg 75%
    19:00 +21°C° 0.1 mm 2 mps 751 mmHg 79%
    20:00 +20°C° 0.1 mm 2 mps 751 mmHg 84%
    21:00 +19°C° 0 mm 2 mps 751 mmHg 84%
    22:00 +19°C° 0 mm 2 mps 751 mmHg 85%
    23:00 +18°C° 0 mm 3 mps 751 mmHg 86%

    28 May, Tuesday

    Time Temperature Precipitation Wind Pressure Humidity
    00:00 +18°C° 0 mm 3 mps 752 mmHg 86%
    01:00 +18°C° 0 mm 3 mps 752 mmHg 86%
    02:00 +17°C° 0 mm 3 mps 752 mmHg 86%
    03:00 +17°C° 0 mm 3 mps 752 mmHg 87%
    04:00 +17°C° 0 mm 3 mps 752 mmHg 87%
    05:00 +17°C° 0 mm 3 mps 752 mmHg 87%
    06:00 +19°C° 0 mm 3 mps 752 mmHg 82%
    07:00 +21°C° 0 mm 3 mps 752 mmHg 77%
    08:00 +24°C° 0 mm 3 mps 752 mmHg 71%
    09:00 +25°C° 0 mm 4 mps 752 mmHg 66%
    10:00 +26°C° 0 mm 5 mps 752 mmHg 60%
    11:00 +27°C° 0 mm 5 mps 752 mmHg 55%
    12:00 +28°C° 0 mm 6 mps 752 mmHg 55%
    13:00 +28°C° 0 mm 6 mps 752 mmHg 56%
    14:00 +28°C° 0 mm 6 mps 752 mmHg 56%
    15:00 +28°C° 0 mm 5 mps 751 mmHg 59%
    16:00 +28°C° 0 mm 5 mps 751 mmHg 63%
    17:00 +28°C° 0 mm 4 mps 751 mmHg 66%
    18:00 +26°C° 0 mm 4 mps 751 mmHg 69%
    19:00 +23°C° 0 mm 4 mps 751 mmHg 72%
    20:00 +21°C° 0 mm 4 mps 751 mmHg 75%
    21:00 +21°C° 0 mm 4 mps 751 mmHg 75%
    22:00 +20°C° 0 mm 4 mps 751 mmHg 75%
    23:00 +19°C° 0 mm 4 mps 751 mmHg 75%

    29 May, Wednesday

    Time Temperature Precipitation Wind Pressure Humidity
    00:00 +18°C° 0 mm 4 mps 751 mmHg 77%
    01:00 +18°C° 0 mm 4 mps 751 mmHg 79%
    02:00 +17°C° 0 mm 4 mps 751 mmHg 81%
    03:00 +16°C° 0 mm 5 mps 751 mmHg 83%
    04:00 +17°C° 0 mm 5 mps 751 mmHg 86%
    05:00 +17°C° 0 mm 5 mps 751 mmHg 88%
    06:00 +20°C° 0 mm 6 mps 751 mmHg 83%
    07:00 +21°C° 0 mm 6 mps 751 mmHg 77%
    08:00 +23°C° 0 mm 7 mps 751 mmHg 72%
    09:00 +24°C° 0 mm 7 mps 750 mmHg 68%
    10:00 +26°C° 0 mm 7 mps 750 mmHg 64%
    11:00 +28°C° 0 mm 7 mps 750 mmHg 60%
    12:00 +28°C° 0 mm 7 mps 750 mmHg 58%
    13:00 +29°C° 0 mm 7 mps 750 mmHg 56%
    14:00 +29°C° 0 mm 7 mps 750 mmHg 54%
    15:00 +29°C° 0 mm 6 mps 750 mmHg 59%
    16:00 +28°C° 0 mm 5 mps 749 mmHg 63%
    17:00 +28°C° 0 mm 4 mps 749 mmHg 68%
    18:00 +27°C° 0 mm 4 mps 749 mmHg 69%
    19:00 +25°C° 0 mm 4 mps 749 mmHg 69%
    20:00 +23°C° 0 mm 5 mps 749 mmHg 70%
    21:00 +22°C° 0 mm 5 mps 749 mmHg 72%
    22:00 +22°C° 0 mm 4 mps 749 mmHg 74%
    23:00 +21°C° 0 mm 4 mps 750 mmHg 76%
    Show more